Regional Weather Roundup
Issued by NWS

Home | Current Version | Previous Version | Graphics & Text | Print | Product List | Glossary On
Versions: 1 2 3 4 5 6 7 8 9 10 11 12 13 14 15 16 17 18 19 20 21 22 23 24 25 26 27 28 29 30 31 32 33 34 35 36 37 38 39 40 41 42 43 44 45 46 47 48 49 50
000
ASUS43 KOAX 250410
RWRNE

WEATHER ROUNDUP FOR NEBRASKA
NATIONAL WEATHER SERVICE OMAHA NE
1100 PM CDT THU APR 24 2014

NOTES: SATELLITE DATA IS BEING USED TO AUGMENT CLOUD COVER ABOVE
       12000 FEET.
       "FAIR" INDICATES FEW OR NO CLOUDS BELOW 12,000 FEET WITH NO
       SIGNIFICANT WEATHER AND/OR OBSTRUCTIONS TO VISIBILITY.

  * THESE STATIONS DO NOT REPORT WEATHER SUCH AS RAIN...SNOW OR FOG.

NEZ001>004-019>022-054>056-250500-
NEBRASKA PANHANDLE

CITY           SKY/WX    TMP DP  RH WIND       PRES   REMARKS
SCOTTSBLUFF    CLOUDY    55  26  32 NW3       29.82S
ALLIANCE       PTCLDY    43  26  51 S12       29.81F
CHADRON        CLOUDY    56  31  38 N6        29.76S
KIMBALL        MOCLDY    46  21  36 SW6       29.87S
SIDNEY         PTCLDY    41  23  48 SW9       29.87F
$$

NEZ057>060-069>072-079>082-250500-
SOUTHWEST NEBRASKA

CITY           SKY/WX    TMP DP  RH WIND       PRES   REMARKS
NORTH PLATTE   CLEAR     42  24  49 SE5       29.84S
IMPERIAL       CLEAR     49  19  30 CALM      29.88R
LEXINGTON      CLEAR     48  25  40 SW3       29.84S
MCCOOK         CLEAR     51  20  29 W3        29.87R
OGALLALA       PTCLDY    41  20  43 CALM      29.85S
$$

NEZ005>010-023>029-035>040-094-250500-
NORTH CENTRAL NEBRASKA

CITY           SKY/WX    TMP DP  RH WIND       PRES   REMARKS
VALENTINE      MOCLDY    50  26  39 SE3       29.82R
AINSWORTH      CLOUDY    51  25  37 E3        29.83R
BROKEN BOW     PTCLDY    40  23  50 CALM      29.83R
O`NEILL        PTCLDY    50  20  30 CALM      29.82S
ORD            CLEAR     40  28  62 SW7       29.83R
THEDFORD       PTCLDY    50  20  30 SE3       29.83S
$$

NEZ041-046>049-061>064-073>077-083>087-250500-
SOUTH CENTRAL NEBRASKA

CITY           SKY/WX    TMP DP  RH WIND       PRES   REMARKS
GRAND ISLAND   CLEAR     51  38  60 SE3       29.84R
AURORA         CLEAR     56  35  44 S6        29.84R
HASTINGS       CLEAR     53  34  48 S6        29.84R
HEBRON         CLEAR     47  37  68 CALM      29.84S
HOLDREGE       PTCLDY    53  27  36 SW5       29.85R
KEARNEY *      PTCLDY    54  30  40 CALM      29.85R
YORK           CLEAR     48  39  71 CALM      29.84R
$$

NEZ011>018-030>034-042>045-250500-
NORTHEAST NEBRASKA

CITY           SKY/WX    TMP DP  RH WIND       PRES   REMARKS
NORFOLK        CLEAR     53  31  42 W3        29.80S
ALBION         CLEAR     44  37  77 CALM      29.82S
BLAIR          CLEAR     50  41  71 S5        29.81R
COLUMBUS *     CLEAR     45  36  70 CALM      29.82S
FREMONT        CLEAR     51  42  71 CALM      29.81S
TEKAMAH        CLEAR     51  40  65 S6        29.80R
$$

NEZ050>053-065>068-078-088>093-250500-
SOUTHEAST NEBRASKA

CITY           SKY/WX    TMP DP  RH WIND       PRES   REMARKS
LINCOLN        CLEAR     52  38  58 S6        29.83R
OMAHA EPPLEY   CLEAR     50  42  74 E5        29.81R
BEATRICE       CLEAR     49  38  66 S7        29.83S
FALLS CITY     CLEAR     51  46  83 SW3       29.83R
NEBRASKA CITY  CLEAR     51  45  78 S6        29.83R
PLATTSMOUTH    CLEAR     50  42  74 S7        29.82S
$$

NEZ044-045-051>053-067-250500-
OMAHA AREA

CITY           SKY/WX    TMP DP  RH WIND       PRES   REMARKS
OMAHA EPPLEY   CLEAR     50  42  74 E5        29.81R
BLAIR          CLEAR     50  41  71 S5        29.81R
FREMONT        CLEAR     51  42  71 CALM      29.81S
MILLARD        CLEAR     49  43  80 CALM      29.81S
OFFUTT AFB     CLEAR     46  46  99 VRB1      29.81R
PLATTSMOUTH    CLEAR     50  42  74 S7        29.82S
WAHOO          FAIR      53  38  58 S6        29.81R
$$



USA.gov is the U.S. government's official web portal to all federal, state and local government web resources and services.